Time,TemperatureF,DewpointF,PressureIn,WindDirection,WindDirectionDegrees,WindSpeedMPH,WindSpeedGustMPH,Humidity,HourlyPrecipIn,Conditions,Clouds,dailyrainin,SoftwareType,DateUTC
2013-03-11 00:00:00,62.6,57.7,30.09,ESE,118,1.1,3.5,84,0.00,FEW,,0.00,WeatherDisplay:10.37,2013-03-11 04:00:00,
2013-03-11 00:05:00,62.9,57.7,30.09,East,94,1.9,3.5,83,0.00,FEW,,0.00,WeatherDisplay:10.37,2013-03-11 04:05:00,
2013-03-11 00:10:00,63.4,57.8,30.08,ESE,117,0.9,5.8,82,0.00,FEW,,0.00,WeatherDisplay:10.37,2013-03-11 04:10:00,
2013-03-11 00:15:00,63.8,58.2,30.08,East,101,1.7,3.5,82,0.00,FEW,,0.00,WeatherDisplay:10.37,2013-03-11 04:15:00,
2013-03-11 00:20:00,64.0,58.1,30.08,SE,129,4.1,7.0,81,0.00,FEW,,0.00,WeatherDisplay:10.37,2013-03-11 04:20:00,
2013-03-11 00:25:00,64.1,58.1,30.08,East,100,2.8,4.0,81,0.00,FEW,,0.00,WeatherDisplay:10.37,2013-03-11 04:25:00,
2013-03-11 00:30:00,63.9,58.0,30.08,ESE,121,1.9,3.5,81,0.00,FEW,,0.00,WeatherDisplay:10.37,2013-03-11 04:30:00,
2013-03-11 00:35:00,63.8,57.9,30.08,East,79,1.3,3.5,81,0.00,FEW,,0.00,WeatherDisplay:10.37,2013-03-11 04:35:00,
2013-03-11 00:40:00,63.6,57.7,30.08,SE,136,0.3,3.5,81,0.00,FEW,,0.00,WeatherDisplay:10.37,2013-03-11 04:40:00,
2013-03-11 00:45:00,63.4,57.8,30.08,SE,140,2.4,3.5,82,0.00,FEW,,0.00,WeatherDisplay:10.37,2013-03-11 04:45:00,
2013-03-11 00:50:00,63.3,57.7,30.08,SE,145,2.9,4.6,82,0.00,FEW,,0.00,WeatherDisplay:10.37,2013-03-11 04:50:00,
2013-03-11 00:55:00,63.2,57.6,30.08,ESE,104,1.4,2.3,82,0.00,FEW,,0.00,WeatherDisplay:10.37,2013-03-11 04:55:00,
2013-03-11 01:00:00,63.1,57.5,30.08,SE,130,1.5,3.5,82,0.00,FEW,,0.00,WeatherDisplay:10.37,2013-03-11 05:00:00,
2013-03-11 01:05:00,63.0,57.4,30.08,SE,137,1.4,2.3,82,0.00,FEW,,0.00,WeatherDisplay:10.37,2013-03-11 05:05:00,
2013-03-11 01:10:00,62.9,57.3,30.08,ENE,77,1.0,1.1,82,0.00,FEW,,0.00,WeatherDisplay:10.37,2013-03-11 05:10:00,
2013-03-11 01:15:00,62.8,57.6,30.08,East,79,1.8,4.6,83,0.00,CLR,,0.00,WeatherDisplay:10.37,2013-03-11 05:15:00,
2013-03-11 01:20:00,62.6,57.4,30.08,ESE,113,1.8,3.5,83,0.00,CLR,,0.00,WeatherDisplay:10.37,2013-03-11 05:20:00,
2013-03-11 01:25:00,62.5,57.3,30.08,ESE,115,1.1,3.5,83,0.00,CLR,,0.00,WeatherDisplay:10.37,2013-03-11 05:25:00,
2013-03-11 01:30:00,62.4,57.2,30.08,ENE,72,2.0,4.6,83,0.00,CLR,,0.00,WeatherDisplay:10.37,2013-03-11 05:30:00,
2013-03-11 01:35:00,62.3,57.4,30.07,ENE,60,2.0,4.6,84,0.00,CLR,,0.00,WeatherDisplay:10.37,2013-03-11 05:35:00,
2013-03-11 01:40:00,62.1,57.2,30.07,SE,141,2.2,3.5,84,0.00,CLR,,0.00,WeatherDisplay:10.37,2013-03-11 05:40:00,
2013-03-11 01:45:00,62.0,57.1,30.07,ESE,118,0.4,2.3,84,0.00,CLR,,0.00,WeatherDisplay:10.37,2013-03-11 05:45:00,
2013-03-11 01:50:00,61.8,56.9,30.07,ESE,111,0.8,1.1,84,0.00,CLR,,0.00,WeatherDisplay:10.37,2013-03-11 05:50:00,
2013-03-11 01:55:00,61.6,57.0,30.07,ESE,117,0.3,2.3,85,0.00,CLR,,0.00,WeatherDisplay:10.37,2013-03-11 05:55:00,
2013-03-11 02:00:00,61.4,56.8,30.07,SE,127,1.0,2.0,85,0.00,CLR,,0.00,WeatherDisplay:10.37,2013-03-11 06:00:00,
2013-03-11 02:05:00,61.3,56.8,30.07,SE,131,0.8,2.3,85,0.00,CLR,,0.00,WeatherDisplay:10.37,2013-03-11 06:05:00,
2013-03-11 02:10:00,61.1,56.6,30.07,ESE,110,0.9,4.6,85,0.00,CLR,,0.00,WeatherDisplay:10.37,2013-03-11 06:10:00,
2013-03-11 02:15:00,61.1,56.9,30.06,ESE,108,1.3,3.5,86,0.00,CLR,,0.00,WeatherDisplay:10.37,2013-03-11 06:15:00,
2013-03-11 02:20:00,61.0,56.8,30.06,ESE,104,1.1,3.5,86,0.00,CLR,,0.00,WeatherDisplay:10.37,2013-03-11 06:20:00,
2013-03-11 02:25:00,60.9,56.7,30.06,East,91,1.4,4.0,86,0.00,CLR,,0.00,WeatherDisplay:10.37,2013-03-11 06:25:00,
2013-03-11 09:17:00,65.6,58.9,30.02,SE,141,6.1,11.5,79,0.00,CLR,,0.00,WeatherDisplay:10.37,2013-03-11 13:17:00,
2013-03-11 09:22:00,66.0,59.3,30.02,ENE,61,3.9,9.2,79,0.00,CLR,,0.00,WeatherDisplay:10.37,2013-03-11 13:22:00,
2013-03-11 09:27:00,66.4,59.0,30.01,NE,49,4.9,7.0,77,0.00,CLR,,0.00,WeatherDisplay:10.37,2013-03-11 13:27:00,
2013-03-11 09:43:00,67.4,59.6,30.01,ENE,75,0.0,6.9,76,0.00,CLR,,0.00,WeatherDisplay:10.37,2013-03-11 13:43:00,
2013-03-11 09:48:00,67.7,59.9,30.00,East,100,6.7,9.0,76,0.00,CLR,,0.00,WeatherDisplay:10.37,2013-03-11 13:48:00,
2013-03-11 09:53:00,67.9,60.1,30.00,SE,124,6.3,9.2,76,0.00,CLR,,0.00,WeatherDisplay:10.37,2013-03-11 13:53:00,
2013-03-11 09:58:00,68.0,60.2,30.00,SE,125,5.3,6.9,76,0.00,CLR,,0.00,WeatherDisplay:10.37,2013-03-11 13:58:00,
2013-03-11 10:03:00,68.5,60.3,30.01,SSE,155,4.3,5.0,75,0.00,CLR,,0.00,WeatherDisplay:10.37,2013-03-11 14:03:00,
2013-03-11 10:08:00,68.9,60.3,30.01,SSE,148,6.0,18.0,74,0.00,CLR,,0.00,WeatherDisplay:10.37,2013-03-11 14:08:00,
2013-03-11 10:13:00,69.3,60.7,30.01,SSW,199,7.2,10.4,74,0.00,CLR,,0.00,WeatherDisplay:10.37,2013-03-11 14:13:00,
2013-03-11 10:18:00,69.6,60.6,30.00,SE,138,4.5,9.2,73,0.00,CLR,,0.00,WeatherDisplay:10.37,2013-03-11 14:18:00,
2013-03-11 10:23:00,69.8,60.4,30.01,SSE,148,8.5,11.5,72,0.00,CLR,,0.00,WeatherDisplay:10.37,2013-03-11 14:23:00,
2013-03-11 10:29:00,70.1,60.7,30.01,South,184,7.4,15.0,72,0.00,CLR,,0.00,WeatherDisplay:10.37,2013-03-11 14:29:00,
2013-03-11 10:34:00,70.3,60.8,30.01,ESE,116,7.2,11.5,72,0.00,CLR,,0.00,WeatherDisplay:10.37,2013-03-11 14:34:00,
2013-03-11 10:39:00,70.8,60.9,30.01,ENE,70,7.6,9.2,71,0.00,CLR,,0.00,WeatherDisplay:10.37,2013-03-11 14:39:00,
2013-03-11 10:44:00,71.1,61.6,30.00,SSE,150,5.7,10.4,72,0.00,CLR,,0.00,WeatherDisplay:10.37,2013-03-11 14:44:00,
2013-03-11 10:49:00,71.5,61.6,30.00,SE,133,4.6,7.0,71,0.00,CLR,,0.00,WeatherDisplay:10.37,2013-03-11 14:49:00,
2013-03-11 10:54:00,71.7,61.4,30.00,ESE,115,8.9,17.3,70,0.00,CLR,,0.00,WeatherDisplay:10.37,2013-03-11 14:54:00,
2013-03-11 10:59:00,71.4,61.5,30.00,SE,144,8.3,13.8,71,0.00,CLR,,0.00,WeatherDisplay:10.37,2013-03-11 14:59:00,
2013-03-11 11:04:00,71.6,61.3,30.00,SE,131,9.3,16.1,70,0.00,CLR,,0.00,WeatherDisplay:10.37,2013-03-11 15:04:00,
2013-03-11 11:09:00,71.7,61.4,30.00,SE,143,6.0,12.0,70,0.00,CLR,,0.00,WeatherDisplay:10.37,2013-03-11 15:09:00,
2013-03-11 11:14:00,71.9,61.2,30.00,SSW,206,6.7,15.0,69,0.00,CLR,,0.00,WeatherDisplay:10.37,2013-03-11 15:14:00,
2013-03-11 11:19:00,72.1,61.0,30.00,SE,134,9.9,11.5,68,0.00,CLR,,0.00,WeatherDisplay:10.37,2013-03-11 15:19:00,
2013-03-11 11:24:00,72.3,61.1,30.00,SE,131,8.4,12.7,68,0.00,CLR,,0.00,WeatherDisplay:10.37,2013-03-11 15:24:00,
2013-03-11 11:29:00,72.5,61.3,30.00,SSE,150,7.2,9.2,68,0.00,CLR,,0.00,WeatherDisplay:10.37,2013-03-11 15:29:00,
2013-03-11 11:34:00,72.7,61.1,30.00,SE,143,5.0,9.2,67,0.00,CLR,,0.00,WeatherDisplay:10.37,2013-03-11 15:34:00,
2013-03-11 11:39:00,73.0,61.0,30.00,SSE,155,7.8,11.5,66,0.00,CLR,,0.00,WeatherDisplay:10.37,2013-03-11 15:39:00,
2013-03-11 11:44:00,73.9,60.5,30.01,ESE,109,8.7,11.5,63,0.00,CLR,,0.00,WeatherDisplay:10.37,2013-03-11 15:44:00,
2013-03-11 12:22:00,74.2,61.2,30.03,SSW,203,8.7,16.1,64,0.00,CLR,,0.00,WeatherDisplay:10.37,2013-03-11 16:22:00,
2013-03-11 12:27:00,74.1,61.6,30.03,SSW,211,5.6,10.4,65,0.00,CLR,,0.00,WeatherDisplay:10.37,2013-03-11 16:27:00,
2013-03-11 12:32:00,74.6,61.6,30.03,SSW,200,6.9,11.5,64,0.00,CLR,,0.00,WeatherDisplay:10.37,2013-03-11 16:32:00,
2013-03-11 12:37:00,74.6,62.1,30.03,SSW,193,5.7,9.2,65,0.00,CLR,,0.00,WeatherDisplay:10.37,2013-03-11 16:37:00,
2013-03-11 13:55:00,75.0,59.2,30.01,SSE,161,11.9,24.2,58,0.00,CLR,,0.00,WeatherDisplay:10.37,2013-03-11 17:55:00,
2013-03-11 14:00:00,75.0,59.7,30.01,SE,142,10.1,11.5,59,0.00,CLR,,0.00,WeatherDisplay:10.37,2013-03-11 18:00:00,
2013-03-11 14:06:00,75.1,60.3,30.01,WSW,245,8.6,16.1,60,0.00,FEW,,0.00,WeatherDisplay:10.37,2013-03-11 18:06:00,
2013-03-11 14:11:00,74.8,60.0,30.00,SSW,206,11.2,16.1,60,0.00,FEW,,0.00,WeatherDisplay:10.37,2013-03-11 18:11:00,
2013-03-11 14:16:00,74.6,60.3,30.00,SSE,161,10.3,16.1,61,0.00,FEW,,0.00,WeatherDisplay:10.37,2013-03-11 18:16:00,
2013-03-11 14:21:00,74.4,60.5,30.00,South,183,10.5,13.8,62,0.00,FEW,,0.00,WeatherDisplay:10.37,2013-03-11 18:21:00,
2013-03-11 14:26:00,74.2,59.9,29.99,SSW,208,8.5,16.1,61,0.00,FEW,,0.00,WeatherDisplay:10.37,2013-03-11 18:26:00,
2013-03-11 14:31:00,74.5,60.2,29.99,SE,140,10.3,13.8,61,0.00,FEW,,0.00,WeatherDisplay:10.37,2013-03-11 18:31:00,
2013-03-11 14:36:00,74.4,60.5,29.99,South,179,10.6,16.1,62,0.00,FEW,,0.00,WeatherDisplay:10.37,2013-03-11 18:36:00,
2013-03-11 14:41:00,74.3,60.0,29.98,SSW,198,13.7,18.4,61,0.00,FEW,,0.00,WeatherDisplay:10.37,2013-03-11 18:41:00,
2013-03-11 14:46:00,74.4,60.1,29.98,SSE,153,9.7,17.3,61,0.00,FEW,,0.00,WeatherDisplay:10.37,2013-03-11 18:46:00,
2013-03-11 14:51:00,74.9,60.5,29.98,SW,235,8.7,15.0,61,0.00,FEW,,0.00,WeatherDisplay:10.37,2013-03-11 18:51:00,
2013-03-11 14:56:00,75.3,60.9,29.98,South,173,8.1,11.5,61,0.00,FEW,,0.00,WeatherDisplay:10.37,2013-03-11 18:56:00,
2013-03-11 15:01:00,74.9,59.6,29.98,SSE,165,10.6,18.0,59,0.00,FEW,,0.00,WeatherDisplay:10.37,2013-03-11 19:01:00,
2013-03-11 15:06:00,75.1,59.8,29.97,ESE,107,10.2,15.0,59,0.00,FEW,,0.00,WeatherDisplay:10.37,2013-03-11 19:06:00,
2013-03-11 15:11:00,75.2,60.4,29.96,SSE,165,9.6,18.4,60,0.00,FEW,,0.00,WeatherDisplay:10.37,2013-03-11 19:11:00,
2013-03-11 15:16:00,75.2,60.4,29.96,SSE,165,7.1,13.8,60,0.00,FEW,,0.00,WeatherDisplay:10.37,2013-03-11 19:16:00,
2013-03-11 15:21:00,75.0,60.2,29.96,South,189,13.2,15.0,60,0.00,FEW,,0.00,WeatherDisplay:10.37,2013-03-11 19:21:00,
2013-03-11 15:26:00,74.9,60.5,29.96,South,184,10.8,12.7,61,0.00,FEW,,0.00,WeatherDisplay:10.37,2013-03-11 19:26:00,
2013-03-11 15:31:00,74.8,60.9,29.95,SSW,210,7.2,8.1,62,0.00,FEW,,0.00,WeatherDisplay:10.37,2013-03-11 19:31:00,
2013-03-11 15:36:00,74.9,60.5,29.95,South,174,8.4,13.8,61,0.00,CLR,,0.00,WeatherDisplay:10.37,2013-03-11 19:36:00,
2013-03-11 15:41:00,75.3,60.9,29.94,SE,131,7.3,8.1,61,0.00,CLR,,0.00,WeatherDisplay:10.37,2013-03-11 19:41:00,
2013-03-11 15:46:00,75.1,60.3,29.94,ESE,110,10.3,16.1,60,0.00,CLR,,0.00,WeatherDisplay:10.37,2013-03-11 19:46:00,
2013-03-11 15:51:00,75.0,60.2,29.93,South,187,7.2,12.7,60,0.00,CLR,,0.00,WeatherDisplay:10.37,2013-03-11 19:51:00,
2013-03-11 15:56:00,75.3,59.0,29.93,South,169,13.6,17.3,57,0.00,CLR,,0.00,WeatherDisplay:10.37,2013-03-11 19:56:00,
2013-03-11 16:01:00,75.4,59.6,29.93,SSE,166,7.8,12.7,58,0.00,CLR,,0.00,WeatherDisplay:10.37,2013-03-11 20:01:00,
2013-03-11 16:06:00,75.3,59.5,29.93,South,170,7.4,18.4,58,0.00,CLR,,0.00,WeatherDisplay:10.37,2013-03-11 20:06:00,
2013-03-11 16:11:00,75.6,59.8,29.94,SW,214,4.2,10.4,58,0.00,CLR,,0.00,WeatherDisplay:10.37,2013-03-11 20:11:00,
2013-03-11 16:16:00,75.6,59.8,29.94,South,173,9.0,17.3,58,0.00,CLR,,0.00,WeatherDisplay:10.37,2013-03-11 20:16:00,
2013-03-11 16:21:00,75.2,59.4,29.94,SSE,167,9.8,13.8,58,0.00,CLR,,0.00,WeatherDisplay:10.37,2013-03-11 20:21:00,
2013-03-11 16:26:00,75.3,60.0,29.94,SSW,192,9.7,13.8,59,0.00,CLR,,0.00,WeatherDisplay:10.37,2013-03-11 20:26:00,
2013-03-11 16:30:00,69.2,63.5,29.86,SSE,150,8.0,19.0,82,0.00,CLR,CLR,0.00,WeatherDisplay:10.37,2013-03-11 20:30:00,
2013-03-11 16:31:00,75.3,60.5,29.94,SSE,155,4.3,11.5,60,0.00,CLR,,0.00,WeatherDisplay:10.37,2013-03-11 20:31:00,
2013-03-11 16:36:00,75.3,60.5,29.94,SSE,164,8.3,13.8,60,0.00,CLR,,0.00,WeatherDisplay:10.37,2013-03-11 20:36:00,
2013-03-11 16:41:00,75.3,60.5,29.94,ESE,112,8.7,11.5,60,0.00,CLR,,0.00,WeatherDisplay:10.37,2013-03-11 20:41:00,
2013-03-11 16:46:00,75.4,60.5,29.94,South,184,8.4,17.3,60,0.00,CLR,,0.00,WeatherDisplay:10.37,2013-03-11 20:46:00,
2013-03-11 16:51:00,74.9,60.5,29.94,SSE,158,8.3,12.7,61,0.00,CLR,,0.00,WeatherDisplay:10.37,2013-03-11 20:51:00,
2013-03-11 16:56:00,74.6,60.7,29.94,SSE,163,7.3,12.7,62,0.00,CLR,,0.00,WeatherDisplay:10.37,2013-03-11 20:56:00,
2013-03-11 17:01:00,74.5,60.6,29.95,SSE,153,7.7,17.3,62,0.00,CLR,,0.00,WeatherDisplay:10.37,2013-03-11 21:01:00,
2013-03-11 17:06:00,74.0,61.0,29.94,SSW,207,9.0,16.1,64,0.00,CLR,,0.00,WeatherDisplay:10.37,2013-03-11 21:06:00,
2013-03-11 17:10:00,69.2,63.5,29.85,SE,135,7.0,16.0,82,0.00,CLR,CLR,0.00,WeatherDisplay:10.37,2013-03-11 21:10:00,
2013-03-11 17:11:00,73.7,60.8,29.94,SSE,155,8.1,11.5,64,0.00,CLR,,0.00,WeatherDisplay:10.37,2013-03-11 21:11:00,
2013-03-11 17:16:00,73.6,61.1,29.94,South,177,6.1,11.0,65,0.00,CLR,,0.00,WeatherDisplay:10.37,2013-03-11 21:16:00,
2013-03-11 17:20:00,69.2,63.5,29.85,SE,135,7.0,16.0,82,0.00,CLR,CLR,0.00,WeatherDisplay:10.37,2013-03-11 21:20:00,
2013-03-11 17:21:00,73.3,60.8,29.94,South,179,9.8,17.3,65,0.00,CLR,,0.00,WeatherDisplay:10.37,2013-03-11 21:21:00,
2013-03-11 17:26:00,73.5,61.4,29.94,South,188,11.3,12.7,66,0.00,CLR,,0.00,WeatherDisplay:10.37,2013-03-11 21:26:00,
2013-03-11 17:30:00,69.2,63.5,29.85,SE,135,7.0,16.0,82,0.00,CLR,CLR,0.00,WeatherDisplay:10.37,2013-03-11 21:30:00,
2013-03-11 17:31:00,73.5,61.9,29.94,SW,219,3.0,8.1,67,0.00,CLR,,0.00,WeatherDisplay:10.37,2013-03-11 21:31:00,
2013-03-11 17:36:00,73.6,61.5,29.94,SSE,164,5.7,11.5,66,0.00,CLR,,0.00,WeatherDisplay:10.37,2013-03-11 21:36:00,
2013-03-11 17:40:00,69.0,63.6,29.85,SE,135,6.0,18.0,83,0.00,CLR,CLR,0.00,WeatherDisplay:10.37,2013-03-11 21:40:00,
2013-03-11 17:41:00,73.4,61.8,29.94,South,188,4.2,15.0,67,0.00,CLR,,0.00,WeatherDisplay:10.37,2013-03-11 21:41:00,
2013-03-11 17:46:00,73.3,61.7,29.93,South,184,7.0,8.1,67,0.00,CLR,,0.00,WeatherDisplay:10.37,2013-03-11 21:46:00,
2013-03-11 17:50:00,69.0,63.6,29.85,SE,135,6.0,18.0,83,0.00,CLR,CLR,0.00,WeatherDisplay:10.37,2013-03-11 21:50:00,
2013-03-11 17:51:00,73.1,61.9,29.94,SW,214,6.5,9.2,68,0.00,CLR,,0.00,WeatherDisplay:10.37,2013-03-11 21:51:00,
2013-03-11 17:56:00,72.9,61.7,29.94,SSE,167,5.6,11.5,68,0.00,OVC,,0.00,WeatherDisplay:10.37,2013-03-11 21:56:00,
2013-03-11 18:00:00,69.0,63.6,29.85,SE,135,6.0,18.0,83,0.00,CLR,CLR,0.00,WeatherDisplay:10.37,2013-03-11 22:00:00,
2013-03-11 18:01:00,72.7,61.5,29.94,SE,139,7.3,11.5,68,0.00,OVC,,0.00,WeatherDisplay:10.37,2013-03-11 22:01:00,
2013-03-11 18:06:00,72.6,61.4,29.94,SSE,150,10.1,13.8,68,0.00,OVC,,0.00,WeatherDisplay:10.37,2013-03-11 22:06:00,
2013-03-11 18:10:00,68.8,64.1,29.85,SE,135,6.0,17.0,85,0.00,CLR,CLR,0.00,WeatherDisplay:10.37,2013-03-11 22:10:00,
2013-03-11 18:11:00,72.2,61.9,29.95,SSW,198,7.8,12.7,70,0.00,OVC,,0.00,WeatherDisplay:10.37,2013-03-11 22:11:00,
2013-03-11 18:16:00,72.0,61.7,29.94,South,172,7.7,11.5,70,0.00,OVC,,0.00,WeatherDisplay:10.37,2013-03-11 22:16:00,
2013-03-11 18:20:00,68.8,64.1,29.85,SE,135,6.0,17.0,85,0.00,CLR,CLR,0.00,WeatherDisplay:10.37,2013-03-11 22:20:00,
2013-03-11 18:21:00,71.8,61.5,29.94,South,174,6.6,10.0,70,0.00,OVC,,0.00,WeatherDisplay:10.37,2013-03-11 22:21:00,
2013-03-11 18:26:00,71.5,61.2,29.94,SW,232,6.6,9.2,70,0.00,OVC,,0.00,WeatherDisplay:10.37,2013-03-11 22:26:00,
2013-03-11 18:30:00,68.8,64.1,29.85,SE,135,6.0,17.0,85,0.00,CLR,CLR,0.00,WeatherDisplay:10.37,2013-03-11 22:30:00,
2013-03-11 18:31:00,71.4,61.1,29.94,South,171,5.0,8.1,70,0.00,OVC,,0.00,WeatherDisplay:10.37,2013-03-11 22:31:00,
2013-03-11 18:37:00,71.4,61.1,29.94,SSE,160,4.5,9.0,70,0.00,OVC,,0.00,WeatherDisplay:10.37,2013-03-11 22:37:00,
2013-03-11 18:40:00,68.4,64.4,29.86,SSE,158,7.0,17.0,87,0.02,CLR,CLR,0.02,WeatherDisplay:10.37,2013-03-11 22:40:00,
2013-03-11 18:42:00,71.4,61.1,29.94,SSE,153,5.4,10.4,70,0.00,CLR,,0.00,WeatherDisplay:10.37,2013-03-11 22:42:00,
2013-03-11 18:47:00,71.5,61.2,29.93,South,186,3.8,9.2,70,0.00,CLR,,0.00,WeatherDisplay:10.37,2013-03-11 22:47:00,
2013-03-11 18:50:00,68.4,64.4,29.86,SSE,158,7.0,17.0,87,0.02,CLR,CLR,0.02,WeatherDisplay:10.37,2013-03-11 22:50:00,
2013-03-11 18:52:00,71.6,61.3,29.93,SSW,194,4.5,9.0,70,0.00,CLR,,0.00,WeatherDisplay:10.37,2013-03-11 22:52:00,
2013-03-11 18:57:00,71.4,61.1,29.92,South,180,8.4,12.0,70,0.00,CLR,,0.00,WeatherDisplay:10.37,2013-03-11 22:57:00,
2013-03-11 19:00:00,68.4,64.4,29.86,SSE,158,7.0,17.0,87,0.02,CLR,CLR,0.02,WeatherDisplay:10.37,2013-03-11 23:00:00,
2013-03-11 19:03:00,71.2,61.3,29.92,SE,146,5.4,6.9,71,0.00,CLR,,0.00,WeatherDisplay:10.37,2013-03-11 23:03:00,
2013-03-11 19:08:00,71.0,61.5,29.92,South,185,8.3,11.5,72,0.00,CLR,,0.00,WeatherDisplay:10.37,2013-03-11 23:08:00,
2013-03-11 19:10:00,69.1,64.7,29.86,SSE,158,9.0,22.0,86,0.02,CLR,CLR,0.02,WeatherDisplay:10.37,2013-03-11 23:10:00,
2013-03-11 19:13:00,70.6,61.5,29.91,South,188,5.8,10.4,73,0.00,CLR,,0.00,WeatherDisplay:10.37,2013-03-11 23:13:00,
2013-03-11 19:18:00,70.3,61.2,29.91,SSE,148,6.5,9.2,73,0.00,CLR,,0.00,WeatherDisplay:10.37,2013-03-11 23:18:00,
2013-03-11 19:20:00,69.1,64.7,29.86,SSE,158,9.0,22.0,86,0.02,CLR,CLR,0.02,WeatherDisplay:10.37,2013-03-11 23:20:00,
2013-03-11 19:23:00,70.0,61.3,29.91,SSE,165,5.3,6.9,74,0.00,CLR,,0.00,WeatherDisplay:10.37,2013-03-11 23:23:00,
2013-03-11 19:28:00,69.8,61.5,29.91,SE,137,4.2,4.2,75,0.00,CLR,,0.00,WeatherDisplay:10.37,2013-03-11 23:28:00,
2013-03-11 19:30:00,69.1,64.7,29.86,SSE,158,9.0,22.0,86,0.02,CLR,CLR,0.02,WeatherDisplay:10.37,2013-03-11 23:30:00,
2013-03-11 19:33:00,69.6,61.3,29.90,SE,133,6.9,11.5,75,0.00,CLR,,0.00,WeatherDisplay:10.37,2013-03-11 23:33:00,
2013-03-11 19:38:00,69.4,61.1,29.90,SE,128,5.6,12.0,75,0.00,CLR,,0.00,WeatherDisplay:10.37,2013-03-11 23:38:00,
2013-03-11 19:40:00,69.3,64.9,29.86,SSE,158,9.0,19.0,86,0.00,CLR,CLR,0.02,WeatherDisplay:10.37,2013-03-11 23:40:00,
2013-03-11 19:43:00,69.3,61.4,29.90,SSE,150,6.6,8.1,76,0.00,CLR,,0.00,WeatherDisplay:10.37,2013-03-11 23:43:00,
2013-03-11 19:48:00,69.2,61.3,29.90,SE,143,5.5,11.5,76,0.00,CLR,,0.00,WeatherDisplay:10.37,2013-03-11 23:48:00,
2013-03-11 19:50:00,69.3,64.9,29.86,SSE,158,9.0,19.0,86,0.00,CLR,CLR,0.02,WeatherDisplay:10.37,2013-03-11 23:50:00,
2013-03-11 19:53:00,69.1,61.2,29.90,SSE,151,5.7,8.1,76,0.00,CLR,,0.00,WeatherDisplay:10.37,2013-03-11 23:53:00,
2013-03-11 19:58:00,69.0,61.5,29.90,SSW,196,4.2,8.1,77,0.00,CLR,,0.00,WeatherDisplay:10.37,2013-03-11 23:58:00,
2013-03-11 20:00:00,69.3,64.9,29.86,SSE,158,9.0,19.0,86,0.00,CLR,CLR,0.02,WeatherDisplay:10.37,2013-03-12 00:00:00,
2013-03-11 20:03:00,69.0,61.1,29.90,SSE,150,4.7,8.1,76,0.00,CLR,,0.00,WeatherDisplay:10.37,2013-03-12 00:03:00,
2013-03-11 20:08:00,69.0,61.1,29.90,SSE,148,3.3,6.9,76,0.00,CLR,,0.00,WeatherDisplay:10.37,2013-03-12 00:08:00,
2013-03-11 20:10:00,69.1,65.4,29.87,South,180,10.0,21.0,88,0.02,CLR,CLR,0.04,WeatherDisplay:10.37,2013-03-12 00:10:00,
2013-03-11 20:13:00,69.0,60.7,29.90,SSE,167,5.0,7.0,75,0.00,CLR,,0.00,WeatherDisplay:10.37,2013-03-12 00:13:00,
2013-03-11 20:18:00,69.1,60.8,29.90,South,179,4.8,11.5,75,0.00,CLR,,0.00,WeatherDisplay:10.37,2013-03-12 00:18:00,
2013-03-11 20:20:00,69.1,65.4,29.87,South,180,10.0,21.0,88,0.02,CLR,CLR,0.04,WeatherDisplay:10.37,2013-03-12 00:20:00,
2013-03-11 20:23:00,69.2,60.6,29.90,SSW,210,3.2,11.5,74,0.00,CLR,,0.00,WeatherDisplay:10.37,2013-03-12 00:23:00,
2013-03-11 20:28:00,69.2,60.6,29.91,SE,133,6.0,10.0,74,0.00,CLR,,0.00,WeatherDisplay:10.37,2013-03-12 00:28:00,
2013-03-11 20:30:00,69.1,65.4,29.87,South,180,10.0,21.0,88,0.02,CLR,CLR,0.04,WeatherDisplay:10.37,2013-03-12 00:30:00,
2013-03-11 20:33:00,69.2,60.9,29.92,SW,215,7.8,11.5,75,0.00,CLR,,0.00,WeatherDisplay:10.37,2013-03-12 00:33:00,
2013-03-11 20:38:00,69.1,61.2,29.91,SSE,158,3.5,4.6,76,0.00,CLR,,0.00,WeatherDisplay:10.37,2013-03-12 00:38:00,
2013-03-11 20:40:00,67.3,65.2,29.87,South,180,9.0,23.0,93,0.09,CLR,CLR,0.11,WeatherDisplay:10.37,2013-03-12 00:40:00,
2013-03-11 20:43:00,68.9,61.4,29.91,South,170,3.4,4.6,77,0.00,CLR,,0.00,WeatherDisplay:10.37,2013-03-12 00:43:00,
2013-03-11 20:48:00,68.8,61.7,29.91,South,190,5.7,10.4,78,0.00,CLR,,0.00,WeatherDisplay:10.37,2013-03-12 00:48:00,
2013-03-11 20:50:00,67.3,65.2,29.87,South,180,9.0,23.0,93,0.09,CLR,CLR,0.11,WeatherDisplay:10.37,2013-03-12 00:50:00,
2013-03-11 20:53:00,68.6,61.8,29.91,SSE,166,5.0,8.0,79,0.00,CLR,,0.00,WeatherDisplay:10.37,2013-03-12 00:53:00,
2013-03-11 20:58:00,68.5,61.7,29.91,SSE,148,6.5,10.4,79,0.00,CLR,,0.00,WeatherDisplay:10.37,2013-03-12 00:58:00,
2013-03-11 21:00:00,67.3,65.2,29.87,South,180,9.0,23.0,93,0.09,CLR,CLR,0.11,WeatherDisplay:10.37,2013-03-12 01:00:00,
2013-03-11 21:03:00,68.4,62.0,29.91,SSE,150,5.0,8.1,80,0.00,CLR,,0.00,WeatherDisplay:10.37,2013-03-12 01:03:00,
2013-03-11 21:08:00,68.3,62.2,29.91,SSE,155,4.5,8.1,81,0.00,CLR,,0.00,WeatherDisplay:10.37,2013-03-12 01:08:00,
2013-03-11 21:10:00,67.2,65.7,29.89,SSE,158,7.0,15.0,95,0.19,CLR,CLR,0.23,WeatherDisplay:10.37,2013-03-12 01:10:00,
2013-03-11 21:13:00,68.2,62.1,29.91,South,179,5.0,9.2,81,0.00,CLR,,0.00,WeatherDisplay:10.37,2013-03-12 01:13:00,
2013-03-11 21:18:00,68.2,62.5,29.91,South,177,5.8,10.4,82,0.00,CLR,,0.00,WeatherDisplay:10.37,2013-03-12 01:18:00,
2013-03-11 21:20:00,67.2,65.7,29.89,SSE,158,7.0,15.0,95,0.19,CLR,CLR,0.23,WeatherDisplay:10.37,2013-03-12 01:20:00,
2013-03-11 21:23:00,68.1,62.4,29.91,SSE,155,6.7,11.5,82,0.00,CLR,,0.00,WeatherDisplay:10.37,2013-03-12 01:23:00,
2013-03-11 21:28:00,68.2,62.5,29.91,SSW,203,8.7,11.5,82,0.00,CLR,,0.00,WeatherDisplay:10.37,2013-03-12 01:28:00,
2013-03-11 21:30:00,67.2,65.7,29.89,SSE,158,7.0,15.0,95,0.19,CLR,CLR,0.23,WeatherDisplay:10.37,2013-03-12 01:30:00,
2013-03-11 21:33:00,68.2,62.5,29.92,South,172,4.5,10.4,82,0.00,CLR,,0.00,WeatherDisplay:10.37,2013-03-12 01:33:00,
2013-03-11 21:38:00,68.3,62.6,29.92,South,186,4.6,8.1,82,0.00,CLR,,0.00,WeatherDisplay:10.37,2013-03-12 01:38:00,
2013-03-11 21:40:00,67.3,65.8,29.89,South,180,8.0,19.0,95,0.26,CLR,CLR,0.37,WeatherDisplay:10.37,2013-03-12 01:40:00,
2013-03-11 21:43:00,68.4,62.7,29.92,South,180,4.5,9.2,82,0.00,CLR,,0.00,WeatherDisplay:10.37,2013-03-12 01:43:00,
2013-03-11 21:48:00,68.4,62.7,29.92,SSE,166,3.3,6.0,82,0.00,CLR,,0.00,WeatherDisplay:10.37,2013-03-12 01:48:00,
2013-03-11 21:50:00,67.3,65.8,29.89,South,180,8.0,19.0,95,0.26,CLR,CLR,0.37,WeatherDisplay:10.37,2013-03-12 01:50:00,
2013-03-11 21:53:00,68.4,62.3,29.91,ESE,108,6.1,10.4,81,0.00,CLR,,0.00,WeatherDisplay:10.37,2013-03-12 01:53:00,
2013-03-11 21:58:00,68.6,62.5,29.91,South,172,5.8,10.4,81,0.00,CLR,,0.00,WeatherDisplay:10.37,2013-03-12 01:58:00,
2013-03-11 22:00:00,67.3,65.8,29.89,South,180,8.0,19.0,95,0.26,CLR,CLR,0.37,WeatherDisplay:10.37,2013-03-12 02:00:00,
2013-03-11 22:03:00,68.7,62.6,29.91,SSE,166,8.5,13.8,81,0.00,CLR,,0.00,WeatherDisplay:10.37,2013-03-12 02:03:00,
2013-03-11 22:08:00,68.7,62.6,29.92,SE,140,8.5,11.5,81,0.00,CLR,,0.00,WeatherDisplay:10.37,2013-03-12 02:08:00,
2013-03-11 22:13:00,68.8,62.7,29.92,South,175,5.3,8.0,81,0.00,CLR,,0.00,WeatherDisplay:10.37,2013-03-12 02:13:00,
2013-03-11 22:18:00,68.7,62.6,29.92,South,187,4.7,13.0,81,0.00,CLR,,0.00,WeatherDisplay:10.37,2013-03-12 02:18:00,
2013-03-11 22:23:00,68.6,62.9,29.91,SSE,167,5.3,10.4,82,0.00,CLR,,0.00,WeatherDisplay:10.37,2013-03-12 02:23:00,
2013-03-11 22:28:00,68.6,62.9,29.91,ESE,111,7.1,11.5,82,0.00,CLR,,0.00,WeatherDisplay:10.37,2013-03-12 02:28:00,
2013-03-11 22:33:00,68.6,62.9,29.91,South,179,6.4,8.0,82,0.00,CLR,,0.00,WeatherDisplay:10.37,2013-03-12 02:33:00,
2013-03-11 22:38:00,68.7,63.0,29.91,SE,129,5.7,11.5,82,0.00,CLR,,0.00,WeatherDisplay:10.37,2013-03-12 02:38:00,
2013-03-11 22:43:00,68.6,63.2,29.91,SSE,163,6.0,11.5,83,0.00,CLR,,0.00,WeatherDisplay:10.37,2013-03-12 02:43:00,
2013-03-11 22:48:00,68.6,63.2,29.91,South,183,9.0,11.5,83,0.00,CLR,,0.00,WeatherDisplay:10.37,2013-03-12 02:48:00,
2013-03-11 22:53:00,68.6,63.2,29.91,South,179,5.4,9.2,83,0.00,CLR,,0.00,WeatherDisplay:10.37,2013-03-12 02:53:00,
2013-03-11 22:58:00,68.6,63.2,29.91,SSE,165,5.4,8.1,83,0.00,CLR,,0.00,WeatherDisplay:10.37,2013-03-12 02:58:00,
2013-03-11 23:03:00,68.5,63.1,29.91,SSE,167,7.2,12.0,83,0.00,CLR,,0.00,WeatherDisplay:10.37,2013-03-12 03:03:00,
2013-03-11 23:08:00,68.5,63.1,29.91,ESE,113,8.2,12.0,83,0.00,CLR,,0.00,WeatherDisplay:10.37,2013-03-12 03:08:00,
2013-03-11 23:13:00,68.5,63.1,29.92,SSE,160,7.6,11.5,83,0.00,CLR,,0.00,WeatherDisplay:10.37,2013-03-12 03:13:00,
2013-03-11 23:18:00,68.5,63.1,29.92,South,170,6.8,11.5,83,0.00,CLR,,0.00,WeatherDisplay:10.37,2013-03-12 03:18:00,
2013-03-11 23:23:00,68.6,62.9,29.91,SSE,150,5.9,8.1,82,0.00,CLR,,0.00,WeatherDisplay:10.37,2013-03-12 03:23:00,
2013-03-11 23:28:00,68.6,62.9,29.91,SSE,165,7.8,11.5,82,0.00,CLR,,0.00,WeatherDisplay:10.37,2013-03-12 03:28:00,
2013-03-11 23:33:00,68.7,62.6,29.91,SSW,202,4.7,10.0,81,0.00,CLR,,0.00,WeatherDisplay:10.37,2013-03-12 03:33:00,
2013-03-11 23:38:00,68.8,62.4,29.91,South,169,7.6,9.2,80,0.00,CLR,,0.00,WeatherDisplay:10.37,2013-03-12 03:38:00,
2013-03-11 23:43:00,68.8,62.4,29.91,SE,139,5.6,12.7,80,0.00,CLR,,0.00,WeatherDisplay:10.37,2013-03-12 03:43:00,
2013-03-11 23:48:00,68.8,62.7,29.90,SE,127,8.4,11.5,81,0.00,CLR,,0.00,WeatherDisplay:10.37,2013-03-12 03:48:00,
2013-03-11 23:53:00,68.8,62.7,29.91,SSW,194,7.4,10.4,81,0.00,CLR,,0.00,WeatherDisplay:10.37,2013-03-12 03:53:00,
2013-03-11 23:58:00,68.8,62.7,29.90,SSE,165,8.2,13.8,81,0.00,CLR,,0.00,WeatherDisplay:10.37,2013-03-12 03:58:00,